DW4993 Weather Reports


Display with metric or nautical units.
time (UTC)temp
F
wind
direction
speed
MPH
gust
MPH
rain 1hr
in
rain 24hr
in
rain mn
in
humidity
%
barometer
mb
20260903070305 56 82 2.0 7.0 0.00 0.00 0.00 64 1004.4
20260903065805 56 47 1.0 5.0 0.00 0.00 0.00 65 1004.6
20260903065306 55 18 1.0 5.0 0.00 0.00 0.00 66 1004.5
20260903064805 56 18 0.0 3.0 0.00 0.00 0.00 66 1004.4
20260903064305 56 19 1.0 3.0 0.00 0.00 0.00 66 1004.4
20260903063806 56 10 1.0 3.0 0.00 0.00 0.00 66 1004.3
20260903062805 56 14 1.0 5.0 0.00 0.00 0.00 65 1004.4
20260903062306 56 15 1.0 2.0 0.00 0.00 0.00 65 1004.5
20260903061806 56 16 0.0 1.0 0.00 0.00 0.00 65 1004.6
20260903061305 56 16 0.0 1.0 0.00 0.00 0.00 65 1004.6
20260903060817 56 15 1.0 3.0 0.00 0.00 0.00 66 1004.6
20260903060306 56 15 1.0 3.0 0.00 0.00 0.00 66 1005.0
20260903055806 56 26 1.0 3.0 0.00 0.00 0.00 67 1004.9
20260903055306 56 251 0.0 1.0 0.00 0.00 0.00 68 1004.9
20260903054805 56 251 0.0 0.0 0.00 0.00 0.00 67 1005.0
20260903054305 56 251 0.0 0.0 0.00 0.00 0.00 67 1004.8
20260903053806 56 251 0.0 0.0 0.00 0.00 0.00 67 1004.8
20260903053305 56 251 0.0 0.0 0.00 0.00 0.00 66 1004.6
20260903052805 57 251 0.0 0.0 0.00 0.00 0.00 65 1004.8
20260903052307 57 251 0.0 0.0 0.00 0.00 0.00 64 1004.8
20260903051806 57 251 0.0 0.0 0.00 0.00 0.00 65 1004.8
20260903051305 58 251 0.0 0.0 0.00 0.00 0.00 63 1004.7
20260903050806 58 251 0.0 0.0 0.00 0.00 0.00 62 1004.6
20260903050306 59 251 0.0 0.0 0.00 0.00 0.00 62 1004.5
20260903045806 59 251 0.0 0.0 0.00 0.00 0.00 62 1004.7
20260903045306 59 251 0.0 0.0 0.00 0.00 0.00 62 1004.5
20260903044805 60 251 0.0 0.0 0.00 0.00 0.00 60 1004.5
20260903044305 61 251 0.0 0.0 0.00 0.00 0.00 58 1004.4
20260903043806 61 251 0.0 1.0 0.00 0.00 0.00 56 1004.2
20260903043305 62 251 0.0 1.0 0.00 0.00 0.00 56 1004.3
20260903042806 62 251 0.0 1.0 0.00 0.00 0.00 56 1004.4
20260903042306 62 251 0.0 2.0 0.00 0.00 0.00 56 1004.4
20260903040306 63 245 1.0 3.0 0.00 0.00 0.00 55 1004.6
20260903035805 63 254 1.0 5.0 0.00 0.00 0.00 56 1004.7
20260903035306 63 251 1.0 3.0 0.00 0.00 0.00 56 1004.9
20260903034806 63 242 1.0 3.0 0.00 0.00 0.00 57 1005.2
20260903034305 62 262 1.0 2.0 0.00 0.00 0.00 57 1005.5
20260903033806 62 175 0.0 1.0 0.00 0.00 0.00 57 1005.5
20260903032806 62 175 0.0 0.0 0.00 0.00 0.00 58 1006.1
20260903032306 62 175 0.0 0.0 0.00 0.00 0.00 58 1006.4
20260903031805 62 175 0.0 0.0 0.00 0.00 0.00 57 1006.5
20260903031305 63 175 0.0 0.0 0.00 0.00 0.00 57 1006.5
20260903030806 64 175 0.0 0.0 0.00 0.00 0.00 55 1006.5
20260903030305 64 175 0.0 1.0 0.00 0.00 0.00 54 1006.6
20260903025805 63 175 0.0 1.0 0.00 0.00 0.00 55 1006.6
20260903025306 63 175 0.0 0.0 0.00 0.00 0.00 55 1006.5
20260903024806 64 175 0.0 0.0 0.00 0.00 0.00 54 1006.6
20260903024305 65 175 0.0 0.0 0.00 0.00 0.00 53 1006.6
20260903023805 65 175 0.0 0.0 0.00 0.00 0.00 52 1006.5
20260903023304 65 175 0.0 1.0 0.00 0.00 0.00 52 1006.5
20260903022807 66 175 0.0 1.0 0.00 0.00 0.00 51 1006.5
20260903022306 66 175 0.0 1.0 0.00 0.00 0.00 51 1006.6
20260903021807 66 90 1.0 2.0 0.00 0.00 0.00 51 1006.7
20260903021305 66 174 0.0 1.0 0.00 0.00 0.00 50 1007.0
20260903020806 66 174 0.0 2.0 0.00 0.00 0.00 50 1006.9
20260903015805 67 187 0.0 2.0 0.00 0.00 0.00 48 1006.8
20260903015306 68 199 0.0 3.0 0.00 0.00 0.00 47 1006.7
20260903014306 69 41 1.0 5.0 0.00 0.00 0.00 44 1006.7
20260903013306 70 55 1.0 6.0 0.00 0.00 0.00 41 1006.1
20260903012805 70 83 2.0 6.0 0.00 0.00 0.00 40 1006.4
20260903012306 71 90 2.0 5.0 0.00 0.00 0.00 39 1006.3
20260903011805 72 77 2.0 3.0 0.00 0.00 0.00 38 1006.4
20260903011306 72 79 1.0 2.0 0.00 0.00 0.00 37 1006.3
20260903010805 72 75 1.0 5.0 0.00 0.00 0.00 36 1006.3
20260903010305 72 56 1.0 2.0 0.00 0.00 0.00 35 1006.3
20260903005805 72 75 1.0 3.0 0.00 0.00 0.00 35 1006.2
20260903005306 73 52 2.0 6.0 0.00 0.00 0.00 34 1006.0
20260903004305 73 58 2.0 5.0 0.00 0.00 0.00 34 1005.6
20260903003805 73 33 1.0 3.0 0.00 0.00 0.00 34 1005.7
20260903003306 73 81 2.0 7.0 0.00 0.00 0.00 33 1005.8
20260903002805 73 44 2.0 5.0 0.00 0.00 0.00 34 1006.0
20260903002306 74 355 1.0 3.0 0.00 0.00 0.00 33 1005.7
20260903001805 74 61 1.0 6.0 0.00 0.00 0.00 33 1005.8
20260903001308 74 37 2.0 7.0 0.00 0.00 0.00 32 1005.6
20260903000805 74 55 2.0 9.0 0.00 0.00 0.00 32 1005.6
20260903000305 74 73 3.0 8.0 0.00 0.00 0.00 32 1005.6
20260902235805 74 73 2.0 6.0 0.00 0.00 0.00 31 1005.8
20260902235306 74 40 3.0 8.0 0.00 0.00 0.00 32 1005.8
20260902234805 75 51 3.0 8.0 0.00 0.00 0.00 32 1005.6
20260902234305 75 40 3.0 12.0 0.00 0.00 0.00 32 1005.5
20260902233805 76 34 2.0 10.0 0.00 0.00 0.00 32 1005.6
20260902233306 76 70 2.0 9.0 0.00 0.00 0.00 32 1005.6
20260902232805 75 29 2.0 8.0 0.00 0.00 0.00 32 1005.8
20260902232306 75 20 2.0 7.0 0.00 0.00 0.00 32 1005.6
20260902231805 75 27 5.0 9.0 0.00 0.00 0.00 31 1005.7
20260902231306 75 37 2.0 8.0 0.00 0.00 0.00 31 1005.9
20260902230805 75 79 3.0 8.0 0.00 0.00 0.00 31 1005.7
20260902230306 75 55 3.0 8.0 0.00 0.00 0.00 30 1005.8
20260902225306 75 40 2.0 9.0 0.00 0.00 0.00 32 1006.1
20260902224805 75 356 3.0 9.0 0.00 0.00 0.00 32 1006.2
20260902223805 73 56 3.0 9.0 0.00 0.00 0.00 33 1006.4
20260902223305 73 47 3.0 10.0 0.00 0.00 0.00 33 1006.4
20260902222805 73 351 4.0 10.0 0.00 0.00 0.00 34 1006.6
20260902222306 73 41 4.0 8.0 0.00 0.00 0.00 34 1006.3
20260902221806 73 53 4.0 9.0 0.00 0.00 0.00 34 1006.3
20260902221306 73 68 2.0 9.0 0.00 0.00 0.00 35 1006.6
20260902220805 72 50 2.0 8.0 0.00 0.00 0.00 36 1006.6
20260902220305 72 69 3.0 8.0 0.00 0.00 0.00 36 1007.0
20260902215805 72 61 3.0 9.0 0.00 0.00 0.00 36 1007.0
20260902215306 72 43 2.0 8.0 0.00 0.00 0.00 36 1007.4
20260902214805 73 59 4.0 9.0 0.00 0.00 0.00 36 1007.4
20260902214305 73 66 3.0 9.0 0.00 0.00 0.00 36 1007.4
20260902213806 72 78 3.0 8.0 0.00 0.00 0.00 36 1007.7
20260902213305 72 59 3.0 8.0 0.00 0.00 0.00 36 1007.7
20260902212805 71 82 4.0 9.0 0.00 0.00 0.00 36 1007.9
20260902211806 72 81 3.0 7.0 0.00 0.00 0.00 35 1007.8
20260902211305 72 69 2.0 3.0 0.00 0.00 0.00 35 1007.8
20260902210305 72 57 1.0 5.0 0.00 0.00 0.00 36 1007.8
20260902205806 72 45 2.0 8.0 0.00 0.00 0.00 35 1007.8
20260902204805 72 52 3.0 8.0 0.00 0.00 0.00 35 1007.8
20260902204305 73 77 2.0 5.0 0.00 0.00 0.00 34 1008.0
20260902203806 73 67 3.0 6.0 0.00 0.00 0.00 34 1007.8
20260902203305 73 29 2.0 6.0 0.00 0.00 0.00 33 1007.6
20260902202805 74 68 2.0 5.0 0.00 0.00 0.00 33 1007.8
20260902202306 74 48 1.0 3.0 0.00 0.00 0.00 32 1007.7
20260902201806 74 73 1.0 6.0 0.00 0.00 0.00 33 1007.6
20260902201305 75 55 1.0 3.0 0.00 0.00 0.00 32 1007.5
20260902200805 74 77 2.0 3.0 0.00 0.00 0.00 32 1007.6
20260902200305 74 20 1.0 3.0 0.00 0.00 0.00 33 1007.6
20260902195805 74 332 1.0 5.0 0.00 0.00 0.00 35 1007.6
20260902195306 74 353 1.0 5.0 0.00 0.00 0.00 34 1007.7
20260902194805 74 358 1.0 6.0 0.00 0.00 0.00 35 1007.7
20260902194306 74 32 1.0 5.0 0.00 0.00 0.00 35 1007.5
20260902193805 74 27 2.0 5.0 0.00 0.00 0.00 35 1007.4
20260902193305 74 21 1.0 3.0 0.00 0.00 0.00 36 1007.8
20260902192805 72 333 0.0 3.0 0.00 0.00 0.00 39 1008.1
20260902192307 72 357 2.0 5.0 0.00 0.00 0.00 39 1008.1
20260902191305 72 4 0.0 2.0 0.00 0.00 0.00 41 1008.5
20260902190804 71 299 1.0 2.0 0.00 0.00 0.00 41 1008.5
20260902190306 71 339 1.0 3.0 0.00 0.00 0.00 41 1008.6
20260902185805 71 338 2.0 5.0 0.00 0.00 0.00 39 1008.6
20260902185307 71 36 1.0 2.0 0.00 0.00 0.00 42 1008.7
20260902184805 70 37 0.0 2.0 0.00 0.00 0.00 42 1008.7
20260902184306 70 37 1.0 3.0 0.00 0.00 0.00 41 1008.7
20260902183305 70 71 1.0 3.0 0.00 0.00 0.00 42 1008.9
20260902182805 69 80 1.0 3.0 0.00 0.00 0.00 43 1008.7
20260902182306 68 54 1.0 2.0 0.00 0.00 0.00 44 1008.7
20260902181304 67 37 0.0 2.0 0.00 0.00 0.00 45 1009.2
20260902180805 67 38 1.0 2.0 0.00 0.00 0.00 46 1009.1
20260902180306 67 43 0.0 2.0 0.00 0.00 0.00 47 1009.1
20260902175805 67 275 1.0 2.0 0.00 0.00 0.00 46 1009.5
20260902175307 67 15 0.0 2.0 0.00 0.00 0.00 47 1009.4
20260902174805 67 349 2.0 5.0 0.00 0.00 0.00 46 1009.4
20260902173805 67 269 1.0 5.0 0.00 0.00 0.00 46 1009.3
20260902173305 67 260 2.0 5.0 0.00 0.00 0.00 44 1009.3
20260902172805 67 262 0.0 1.0 0.00 0.00 0.00 44 1009.1
20260902172308 67 262 0.0 1.0 0.00 0.00 0.00 46 1009.2
20260902171805 67 260 0.0 1.0 0.00 0.00 0.00 45 1008.8
20260902171305 67 258 1.0 2.0 0.00 0.00 0.00 44 1008.8
20260902170305 68 258 2.0 3.0 0.00 0.00 0.00 43 1008.7
20260902165804 68 250 1.0 1.0 0.00 0.00 0.00 43 1008.6
20260902165308 68 250 0.0 1.0 0.00 0.00 0.00 43 1008.6
20260902164806 68 250 1.0 2.0 0.00 0.00 0.00 43 1008.5
20260902164305 68 250 0.0 0.0 0.00 0.00 0.00 43 1008.4
20260902163805 68 250 0.0 0.0 0.00 0.00 0.00 43 1008.3
20260902163305 68 250 0.0 1.0 0.00 0.00 0.00 44 1008.3
20260902162806 68 250 1.0 2.0 0.00 0.00 0.00 43 1008.5
20260902162307 68 247 2.0 3.0 0.00 0.00 0.00 43 1008.6
20260902161305 67 182 1.0 2.0 0.00 0.00 0.00 44 1008.5
20260902160305 67 274 0.0 2.0 0.00 0.00 0.00 43 1007.9
20260902155805 67 340 1.0 2.0 0.00 0.00 0.00 44 1007.8
20260902154806 66 336 1.0 2.0 0.00 0.00 0.00 44 1008.1
20260902153806 64 262 0.0 3.0 0.00 0.00 0.00 48 1007.9
20260902153305 64 352 2.0 5.0 0.00 0.00 0.00 48 1007.8
20260902152806 63 254 2.0 5.0 0.00 0.00 0.00 51 1008.2
20260902152307 63 31 1.0 5.0 0.00 0.00 0.00 52 1008.3
20260902151805 62 2 1.0 5.0 0.00 0.00 0.00 53 1008.9
20260902151305 62 326 1.0 3.0 0.00 0.00 0.00 56 1008.5
20260902150806 61 316 1.0 2.0 0.00 0.00 0.00 57 1008.8
20260902150304 61 262 0.0 1.0 0.00 0.00 0.00 60 1008.7
20260902145805 61 259 0.0 0.0 0.00 0.00 0.00 58 1009.1
20260902144806 61 259 0.0 0.0 0.00 0.00 0.00 57 1009.0
20260902144305 60 259 0.0 0.0 0.00 0.00 0.00 58 1008.8
20260902143805 60 259 0.0 0.0 0.00 0.00 0.00 59 1008.9
20260902143305 60 259 0.0 0.0 0.00 0.00 0.00 60 1008.9
20260902142807 60 259 0.0 0.0 0.00 0.00 0.00 61 1008.7
20260902142306 60 259 0.0 0.0 0.00 0.00 0.00 63 1008.7
20260902141805 59 259 0.0 0.0 0.00 0.00 0.00 63 1008.8
20260902141306 59 259 0.0 1.0 0.00 0.00 0.00 63 1008.9
20260902140806 59 259 0.0 1.0 0.00 0.00 0.00 63 1008.6
20260902140305 58 259 0.0 0.0 0.00 0.00 0.00 63 1008.3
20260902135804 58 259 0.0 0.0 0.00 0.00 0.00 63 1008.4
20260902135306 58 259 0.0 0.0 0.00 0.00 0.00 64 1008.2
20260902134805 58 259 0.0 0.0 0.00 0.00 0.00 64 1008.2
20260902134305 57 259 0.0 0.0 0.00 0.00 0.00 65 1007.9
20260902133805 57 259 0.0 0.0 0.00 0.00 0.00 66 1008.1
20260902133306 57 259 0.0 0.0 0.00 0.00 0.00 65 1008.1
20260902132307 56 259 0.0 0.0 0.00 0.00 0.00 66 1008.2
20260902131805 56 259 0.0 0.0 0.00 0.00 0.00 68 1008.2
20260902131306 56 259 0.0 1.0 0.00 0.00 0.00 67 1008.0
20260902130805 55 259 0.0 0.0 0.00 0.00 0.00 68 1007.9
20260902130305 55 259 0.0 0.0 0.00 0.00 0.00 68 1007.6
20260902125805 55 259 0.0 0.0 0.00 0.00 0.00 68 1007.6
20260902125306 55 259 0.0 0.0 0.00 0.00 0.00 68 1007.6
20260902124805 56 259 0.0 0.0 0.00 0.00 0.00 68 1007.6
20260902124305 56 259 0.0 0.0 0.00 0.00 0.00 68 1007.2
20260902123805 56 259 0.0 1.0 0.00 0.00 0.00 67 1007.3
20260902123306 56 259 0.0 1.0 0.00 0.00 0.00 67 1007.6
20260902122804 55 258 0.0 0.0 0.00 0.00 0.00 68 1007.4
20260902122305 56 258 0.0 0.0 0.00 0.00 0.00 68 1007.6
20260902121805 56 258 0.0 0.0 0.00 0.00 0.00 67 1007.3
20260902121305 56 258 0.0 1.0 0.00 0.00 0.00 66 1007.5
20260902120805 56 259 0.0 1.0 0.00 0.00 0.00 67 1007.4
20260902115804 55 259 0.0 0.0 0.00 0.00 0.00 68 1007.5
20260902115308 56 259 0.0 0.0 0.00 0.00 0.00 68 1007.9
20260902113805 55 258 0.0 0.0 0.00 0.00 0.00 67 1007.5
20260902112306 57 258 0.0 1.0 0.00 0.00 0.00 65 1007.5
20260902111805 57 258 0.0 1.0 0.00 0.00 0.00 65 1007.9
20260902110805 57 258 0.0 1.0 0.00 0.00 0.00 64 1007.6
20260902110305 56 258 0.0 1.0 0.00 0.00 0.00 66 1007.7
20260902105805 55 258 0.0 0.0 0.00 0.00 0.00 67 1007.7
20260902105306 55 258 0.0 0.0 0.00 0.00 0.00 67 1007.5
20260902104805 55 258 0.0 0.0 0.00 0.00 0.00 66 1007.6
20260902104305 56 258 0.0 0.0 0.00 0.00 0.00 66 1007.5
20260902103805 56 258 0.0 0.0 0.00 0.00 0.00 64 1007.3
20260902103305 56 258 0.0 0.0 0.00 0.00 0.00 63 1007.4
20260902102805 57 258 0.0 0.0 0.00 0.00 0.00 62 1007.5
20260902102308 58 258 0.0 1.0 0.00 0.00 0.00 61 1007.3
20260902101304 58 259 1.0 2.0 0.00 0.00 0.00 59 1007.4
20260902100305 58 203 1.0 2.0 0.00 0.00 0.00 58 1007.4
20260902095804 57 203 1.0 1.0 0.00 0.00 0.00 59 1007.7
20260902095307 56 203 1.0 1.0 0.00 0.00 0.00 60 1007.8
20260902094805 56 203 0.0 0.0 0.00 0.00 0.00 61 1008.0
20260902094306 56 203 0.0 0.0 0.00 0.00 0.00 61 1007.9
20260902093805 57 203 0.0 0.0 0.00 0.00 0.00 59 1007.7
20260902093305 57 203 0.0 1.0 0.00 0.00 0.00 58 1007.8
20260902092805 58 203 0.0 1.0 0.00 0.00 0.00 57 1007.8
20260902092306 58 203 0.0 1.0 0.00 0.00 0.00 56 1007.7
20260902091805 58 203 1.0 1.0 0.00 0.00 0.00 56 1007.8
20260902090805 57 203 0.0 0.0 0.00 0.00 0.00 57 1007.7
20260902085306 57 203 0.0 0.0 0.00 0.00 0.00 57 1007.9
20260902084806 58 203 0.0 1.0 0.00 0.00 0.00 57 1007.6
20260902084305 58 203 0.0 0.0 0.00 0.00 0.00 56 1007.8
20260902083805 58 203 0.0 0.0 0.00 0.00 0.00 55 1007.7
20260902083305 59 203 0.0 0.0 0.00 0.00 0.00 54 1007.8
20260902082806 59 203 0.0 0.0 0.00 0.00 0.00 53 1007.6
20260902082309 59 203 0.0 0.0 0.00 0.00 0.00 53 1007.7
20260902081805 58 203 0.0 0.0 0.00 0.00 0.00 54 1007.8
20260902081305 59 203 0.0 0.0 0.00 0.00 0.00 53 1007.7
20260902080806 59 202 0.0 0.0 0.00 0.00 0.00 53 1007.7
20260902080305 59 203 0.0 0.0 0.00 0.00 0.00 52 1007.8
20260902075805 59 203 0.0 0.0 0.00 0.00 0.00 52 1007.7
20260902074806 60 203 0.0 0.0 0.00 0.00 0.00 51 1007.9
20260902074305 60 207 0.0 0.0 0.00 0.00 0.00 50 1007.8
20260902073805 60 207 0.0 1.0 0.00 0.00 0.00 50 1007.9
20260902072805 60 207 0.0 0.0 0.00 0.00 0.00 50 1008.1
20260902072309 60 207 0.0 0.0 0.00 0.00 0.00 50 1008.0
20260902071306 60 207 0.0 0.0 0.00 0.00 0.00 50 1008.3